Regional Weather Roundup
Issued by NWS

Home | Current Version | Previous Version | Text Only | Print | Product List | Glossary Off
Versions: 1 2 3 4 5 6 7 8 9 10 11 12 13 14 15 16 17 18 19 20 21 22 23 24 25 26 27 28 29 30 31 32 33 34 35 36 37 38 39 40 41 42 43 44 45 46 47 48 49 50

000
ASUS43 KOAX 241110
RWRNE

WEATHER ROUNDUP FOR NEBRASKA
NATIONAL WEATHER SERVICE OMAHA NE
500 AM CST FRI NOV 24 2017

NOTES: SATELLITE DATA IS BEING USED TO AUGMENT CLOUD COVER ABOVE
       12000 FEET.
       "FAIR" INDICATES FEW OR NO CLOUDS BELOW 12,000 FEET WITH NO
       SIGNIFICANT WEATHER AND/OR OBSTRUCTIONS TO VISIBILITY.


NEZ001>004-019>022-054>056-241200-
NEBRASKA PANHANDLE

CITY           SKY/WX    TMP DP  RH WIND       PRES   REMARKS
SCOTTSBLUFF    CLOUDY    61  34  36 W23G32    29.71F
ALLIANCE       CLOUDY    54  37  52 W22       29.67F
CHADRON        CLEAR     44  35  70 S8        29.63F
GORDON         FAIR      48  36  63 W7        29.62F
KIMBALL        CLOUDY    53  31  43 W10       29.80S
SIDNEY         CLOUDY    56  32  40 W14       29.77F
$$

NEZ057>060-069>072-079>082-241200-
SOUTHWEST NEBRASKA

CITY           SKY/WX    TMP DP  RH WIND       PRES   REMARKS
NORTH PLATTE   CLEAR     35  31  85 NW3       29.67F
IMPERIAL       CLEAR     48  30  49 W13       29.73F
LEXINGTON      CLOUDY    37  32  84 NW6       29.66S WCI  32
MCCOOK         PTCLDY    45  36  70 W12       29.70F
OGALLALA       CLEAR     42  32  67 NW5       29.71F
$$

NEZ005>010-023>029-035>040-094-241200-
NORTH CENTRAL NEBRASKA

CITY           SKY/WX    TMP DP  RH WIND       PRES   REMARKS
VALENTINE      CLEAR     47  38  71 W12       29.55F
AINSWORTH      CLEAR     50  39  67 W14       29.55F
BROKEN BOW     CLEAR     54  37  52 W13       29.60F
O`NEILL        CLEAR     45  39  81 W9        29.52S
ORD            CLEAR     46  37  71 CALM      29.56F
THEDFORD       CLEAR     49  37  63 NW3       29.61F
$$

NEZ041-046>049-061>064-073>077-083>087-241200-
SOUTH CENTRAL NEBRASKA

CITY           SKY/WX    TMP DP  RH WIND       PRES   REMARKS
GRAND ISLAND   CLEAR     49  39  68 SW15      29.60F
AURORA         PTCLDY    47  38  68 SW13      29.60S
HASTINGS       PTCLDY    47  36  65 W9        29.63F
HEBRON         MOCLDY    52  40  63 SW10      29.64F
HOLDREGE       CLEAR     49  37  63 W12       29.65F
KEARNEY        CLEAR     50  35  56 W7        29.63F
YORK           PTCLDY    46  39  76 SW12      29.59F
$$

NEZ011>018-030>034-042>045-241200-
NORTHEAST NEBRASKA

CITY           SKY/WX    TMP DP  RH WIND       PRES   REMARKS
NORFOLK        CLEAR     45  38  76 SW9       29.51F
ALBION         CLEAR     50  40  66 NW6       29.54F
BLAIR          CLEAR     53  41  65 S15       29.55F
COLUMBUS       CLEAR     48  39  71 SW8       29.56F
FREMONT        CLEAR     51  39  65 S9        29.55F
TEKAMAH        CLEAR     47  38  71 S15       29.53F
WAYNE          CLEAR     42  39  91 S6        29.50F
$$

NEZ050>053-065>068-078-088>093-241200-
SOUTHEAST NEBRASKA

CITY           SKY/WX    TMP DP  RH WIND       PRES   REMARKS
LINCOLN        CLOUDY    51  40  65 S9        29.60F
OMAHA EPPLEY   CLEAR     44  37  76 S10       29.57F
BEATRICE       PTCLDY    50  39  66 S12       29.63F
FALLS CITY     CLOUDY    51  37  58 S16       29.66F
NEBRASKA CITY  PTCLDY    53  39  59 SW14      29.61F
PLATTSMOUTH    CLEAR     52  40  64 S18       29.58F
$$

NEZ044-045-051>053-067-241200-
OMAHA AREA

CITY           SKY/WX    TMP DP  RH WIND       PRES   REMARKS
OMAHA EPPLEY   CLEAR     44  37  76 S10       29.57F
BLAIR          CLEAR     53  41  65 S15       29.55F
FREMONT        CLEAR     51  39  65 S9        29.55F
MILLARD        CLEAR     53  41  63 S3        29.58F
OFFUTT AFB     CLEAR     45  37  74 SE6       29.58F
PLATTSMOUTH    CLEAR     52  40  64 S18       29.58F
WAHOO          FAIR      50  39  66 SW14      29.56F
$$




USA.gov is the U.S. government's official web portal to all federal, state and local government web resources and services.